CW9825 Weather Reports


time (UTC)temp
F
wind
direction
speed
knots
gust
knots
rain 1hr
in
rain 24hr
in
rain mn
in
humidity
%
barometer
mb
20260503181008 66 286 3.5 12.2 0.00 0.00 0.00 35 1006.6
20260503180507 66 257 7.0 12.2 0.00 0.00 0.00 34 1006.8
20260503180016 65 301 5.2 13.0 0.00 0.00 0.00 34 1006.8
20260503175505 65 266 7.0 13.0 0.00 0.00 0.00 35 1006.9
20260503175004 65 228 4.3 12.2 0.00 0.00 0.00 37 1007.0
20260503174512 65 275 7.0 12.2 0.00 0.00 0.00 36 1007.2
20260503174004 64 271 3.5 10.4 0.00 0.00 0.00 37 1007.2
20260503173501 64 269 4.3 10.4 0.00 0.00 0.00 37 1007.2
20260503173131 64 251 6.1 10.4 0.00 0.00 0.00 39 1007.5
20260503172559 64 265 3.5 10.4 0.00 0.00 0.00 39 1007.4
20260503172102 64 262 4.3 9.6 0.00 0.00 0.00 39 1007.4
20260503171557 64 317 5.2 9.6 0.00 0.00 0.00 39 1007.5
20260503171056 63 296 4.3 8.7 0.00 0.00 0.00 39 1007.7
20260503170554 62 270 0.9 6.1 0.00 0.00 0.00 40 1007.8
20260503150530 55 318 4.3 7.8 0.00 0.00 0.00 52 1009.2
20260503131002 45 325 2.6 7.0 0.00 0.00 0.00 64 1009.3
20260503130504 45 302 2.6 7.0 0.00 0.00 0.00 65 1009.4
20260503110545 43 341 5.2 10.4 0.00 0.00 0.00 66 1008.2
20260503081517 47 306 6.1 10.4 0.00 0.00 0.00 71 1007.4
20260503081016 48 340 7.0 12.2 0.00 0.00 0.00 71 1007.2
20260503080513 48 345 5.2 12.2 0.00 0.00 0.00 70 1007.2
20260503072506 49 317 6.1 13.0 0.00 0.00 0.00 69 1007.1
20260503072004 49 348 7.0 13.0 0.00 0.00 0.00 68 1007.1
20260503071506 50 331 7.0 13.0 0.00 0.00 0.00 68 1007.1
20260503071002 50 323 7.8 14.8 0.00 0.00 0.00 67 1007.1
20260503070500 51 296 8.7 14.8 0.00 0.00 0.00 67 1006.9
20260503070115 51 348 7.0 13.0 0.00 0.00 0.00 66 1006.9
20260503060103 51 334 6.1 13.9 0.00 0.00 0.00 66 1006.5
20260503055049 52 310 7.0 13.0 0.00 0.00 0.00 64 1006.5
20260503054556 53 316 7.0 13.0 0.00 0.00 0.00 63 1006.3
20260503054046 53 324 7.0 14.8 0.00 0.00 0.00 61 1006.3
20260503053545 54 336 7.8 14.8 0.00 0.00 0.00 60 1006.2
20260503053043 55 350 7.8 13.0 0.00 0.00 0.00 59 1006.1
20260503052542 55 317 7.8 13.0 0.00 0.00 0.00 59 1005.9
20260503052040 55 18 6.1 12.2 0.00 0.00 0.00 59 1005.8
20260503051547 55 360 7.0 16.5 0.00 0.00 0.00 59 1005.8
20260503051041 55 10 5.2 16.5 0.00 0.00 0.00 59 1005.7
20260503050538 55 323 7.8 13.9 0.00 0.00 0.00 59 1005.7
20260503050037 55 17 7.0 17.4 0.00 0.00 0.00 59 1005.6
20260503045537 55 349 6.1 17.4 0.00 0.00 0.00 58 1005.5
20260503045036 56 24 7.0 13.9 0.00 0.00 0.00 58 1005.5
20260503044536 56 40 7.8 19.1 0.00 0.00 0.00 57 1005.5
20260503044036 56 360 8.7 19.1 0.00 0.00 0.00 57 1005.4
20260503043536 56 341 7.8 18.2 0.00 0.00 0.00 57 1005.4
20260503043036 56 34 8.7 15.6 0.00 0.00 0.00 57 1005.3
20260503042536 56 336 6.1 14.8 0.00 0.00 0.00 57 1005.4
20260503042036 56 311 7.8 21.7 0.00 0.00 0.00 57 1005.4
20260503041536 56 355 7.8 21.7 0.00 0.00 0.00 57 1005.3
20260503041038 57 325 10.4 20.0 0.00 0.00 0.00 57 1005.2
20260503040535 57 339 8.7 20.0 0.00 0.00 0.00 56 1005.1
20260503040035 57 318 7.8 13.9 0.00 0.00 0.00 56 1005.1
20260503035637 57 342 7.8 13.9 0.00 0.00 0.00 56 1005.1
20260503035035 57 23 6.1 13.9 0.00 0.00 0.00 56 1004.9
20260503034538 57 347 7.0 14.8 0.00 0.00 0.00 56 1004.9
20260503034035 57 346 6.1 20.0 0.00 0.00 0.00 57 1004.9
20260503033534 57 323 9.6 20.0 0.00 0.00 0.00 57 1005.0
20260503033045 57 336 8.7 14.8 0.00 0.00 0.00 57 1004.7
20260503032534 58 336 7.0 14.8 0.00 0.00 0.00 57 1004.8
20260503032034 58 313 7.8 15.6 0.00 0.00 0.00 56 1004.7
20260503031537 59 344 8.7 20.9 0.00 0.00 0.00 54 1004.7
20260503031034 60 339 9.6 20.9 0.00 0.00 0.00 52 1004.6
20260503030534 61 333 11.3 22.6 0.00 0.00 0.00 49 1004.5
20260503030036 62 336 13.9 23.5 0.00 0.00 0.00 46 1004.4
20260503025534 63 350 8.7 15.6 0.00 0.00 0.00 45 1004.4
20260503025035 63 348 8.7 14.8 0.00 0.00 0.00 43 1004.3
20260503024543 64 336 7.0 14.8 0.00 0.00 0.00 42 1004.2
20260503024033 64 313 7.0 13.0 0.00 0.00 0.00 41 1004.0
20260503023533 64 338 6.1 11.3 0.00 0.00 0.00 41 1004.0
20260503023033 65 318 6.1 11.3 0.00 0.00 0.00 40 1003.8
20260503022532 65 329 6.1 11.3 0.00 0.00 0.00 39 1003.8
20260503022036 65 355 6.1 12.2 0.00 0.00 0.00 39 1003.7
20260503021535 65 325 6.1 10.4 0.00 0.00 0.00 39 1003.6
20260503021032 66 5 4.3 9.6 0.00 0.00 0.00 38 1003.6
20260503020534 66 325 4.3 10.4 0.00 0.00 0.00 37 1003.5
20260503020032 66 329 5.2 13.0 0.00 0.00 0.00 37 1003.5
20260503015532 66 325 5.2 13.0 0.00 0.00 0.00 36 1003.4
20260503015035 67 328 5.2 10.4 0.00 0.00 0.00 36 1003.2
20260503014531 67 323 4.3 12.2 0.00 0.00 0.00 36 1003.2
20260503014031 67 340 6.1 12.2 0.00 0.00 0.00 35 1003.2
20260503013531 67 334 4.3 13.0 0.00 0.00 0.00 35 1003.3
20260503013035 68 321 4.3 8.7 0.00 0.00 0.00 34 1003.2
20260503012533 68 327 4.3 8.7 0.00 0.00 0.00 34 1003.2
20260503012033 69 339 5.2 8.7 0.00 0.00 0.00 34 1003.1
20260503011530 69 338 4.3 8.7 0.00 0.00 0.00 34 1003.0
20260503011032 69 9 1.7 10.4 0.00 0.00 0.00 34 1003.0
20260503010531 69 274 4.3 10.4 0.00 0.00 0.00 33 1002.9
20260503010033 70 288 4.3 10.4 0.00 0.00 0.00 33 1002.9
20260503005530 70 260 6.1 10.4 0.00 0.00 0.00 33 1002.8
20260503005030 70 322 3.5 13.0 0.00 0.00 0.00 32 1002.8
20260503004535 71 296 3.5 13.0 0.00 0.00 0.00 31 1002.7
20260503004030 71 317 7.0 11.3 0.00 0.00 0.00 31 1002.8
20260503003529 71 257 4.3 11.3 0.00 0.00 0.00 30 1002.8
20260503003035 71 288 5.2 11.3 0.00 0.00 0.00 31 1003.0
20260503002526 71 268 2.6 13.0 0.00 0.00 0.00 33 1003.0
20260503002027 71 197 7.0 14.8 0.00 0.00 0.00 33 1002.9
20260503001526 71 196 6.1 13.9 0.00 0.00 0.00 35 1003.0
20260503001026 71 174 5.2 15.6 0.00 0.00 0.00 35 1003.1
20260503000524 71 180 7.0 17.4 0.00 0.00 0.00 35 1003.3
20260503000024 71 209 7.8 17.4 0.00 0.00 0.00 34 1003.3
20260502235523 71 271 8.7 16.5 0.00 0.00 0.00 34 1003.5
20260502235023 71 202 8.7 19.1 0.00 0.00 0.00 32 1003.5
20260502234528 71 218 10.4 19.1 0.00 0.00 0.00 31 1003.5
20260502234022 70 162 7.0 15.6 0.00 0.00 0.00 30 1003.6
20260502233521 70 191 3.5 13.9 0.00 0.00 0.00 30 1003.7
20260502233021 70 167 5.2 13.9 0.00 0.00 0.00 29 1003.9
20260502232521 70 245 4.3 16.5 0.00 0.00 0.00 29 1004.0
20260502232018 70 213 4.3 16.5 0.00 0.00 0.00 28 1004.1
20260502231524 70 190 3.5 14.8 0.00 0.00 0.00 28 1004.2
20260502231017 70 212 6.1 14.8 0.00 0.00 0.00 28 1004.3
20260502230517 70 205 6.1 13.9 0.00 0.00 0.00 29 1004.3
20260502230016 70 205 9.6 13.9 0.00 0.00 0.00 29 1004.4
20260502225514 70 195 4.3 13.0 0.00 0.00 0.00 28 1004.5
20260502225014 71 207 6.1 13.9 0.00 0.00 0.00 27 1004.6
20260502224513 71 200 7.8 15.6 0.00 0.00 0.00 28 1004.7
20260502224013 71 211 8.7 16.5 0.00 0.00 0.00 28 1004.8
20260502223512 70 196 4.3 16.5 0.00 0.00 0.00 29 1004.9
20260502223010 70 193 3.5 16.5 0.00 0.00 0.00 29 1005.0
20260502222510 70 205 9.6 16.5 0.00 0.00 0.00 28 1005.1
20260502222010 70 213 6.1 18.2 0.00 0.00 0.00 28 1005.2
20260502221510 70 202 8.7 18.2 0.00 0.00 0.00 28 1005.4
20260502221008 70 221 6.1 15.6 0.00 0.00 0.00 28 1005.6
20260502220507 70 216 7.0 14.8 0.00 0.00 0.00 27 1005.6
20260502220012 70 198 7.0 13.9 0.00 0.00 0.00 28 1005.8
20260502215507 69 219 6.1 16.5 0.00 0.00 0.00 29 1005.8
20260502215004 69 202 7.0 16.5 0.00 0.00 0.00 29 1006.0
20260502214504 69 217 6.1 12.2 0.00 0.00 0.00 29 1006.1
20260502214003 68 219 5.2 13.0 0.00 0.00 0.00 29 1006.2
20260502213503 69 196 5.2 13.0 0.00 0.00 0.00 30 1006.4
20260502213004 68 176 3.5 10.4 0.00 0.00 0.00 31 1006.5
20260502212501 68 190 6.1 10.4 0.00 0.00 0.00 30 1006.6
20260502212001 67 208 5.2 13.9 0.00 0.00 0.00 32 1006.7
20260502211600 67 214 6.1 14.8 0.00 0.00 0.00 31 1006.9
20260502211059 68 168 7.0 14.8 0.00 0.00 0.00 31 1006.9
20260502210559 68 192 4.3 8.7 0.00 0.00 0.00 31 1007.1
20260502210058 67 271 3.5 8.7 0.00 0.00 0.00 31 1007.2
20260502205558 67 300 4.3 10.4 0.00 0.00 0.00 31 1007.5
20260502205056 67 194 3.5 10.4 0.00 0.00 0.00 31 1007.6
20260502204602 67 246 3.5 13.9 0.00 0.00 0.00 31 1007.8
20260502204055 67 248 4.3 13.9 0.00 0.00 0.00 31 1007.6
20260502203554 67 242 2.6 9.6 0.00 0.00 0.00 31 1007.8
20260502203118 67 169 4.3 10.4 0.00 0.00 0.00 32 1008.1
20260502202553 67 182 2.6 9.6 0.00 0.00 0.00 32 1008.3
20260502202056 66 178 2.6 9.6 0.00 0.00 0.00 32 1008.4
20260502201603 66 22 3.5 13.0 0.00 0.00 0.00 33 1008.6
20260502201054 66 355 0.0 20.9 0.00 0.00 0.00 33 1008.7
20260502200551 66 281 7.8 20.9 0.00 0.00 0.00 32 1009.3
20260502200059 67 269 3.5 10.4 0.00 0.00 0.00 29 1008.9
20260502195550 67 240 4.3 14.8 0.00 0.00 0.00 30 1008.8
20260502195050 67 278 7.8 17.4 0.00 0.00 0.00 32 1008.8
20260502194555 67 275 4.3 17.4 0.00 0.00 0.00 32 1008.9
20260502194051 68 286 7.8 17.4 0.00 0.00 0.00 32 1009.1
20260502193551 68 253 4.3 16.5 0.00 0.00 0.00 30 1009.1
20260502193100 68 292 7.0 16.5 0.00 0.00 0.00 29 1009.1
20260502192549 69 244 7.0 13.9 0.00 0.00 0.00 29 1009.1
20260502192047 69 250 7.0 18.2 0.00 0.00 0.00 29 1009.1
20260502191550 70 221 5.2 18.2 0.00 0.00 0.00 29 1009.1
20260502191048 70 286 3.5 17.4 0.00 0.00 0.00 29 1009.0
20260502190547 70 268 5.2 17.4 0.00 0.00 0.00 29 1009.2
20260502190048 69 200 4.3 18.2 0.00 0.00 0.00 29 1009.1
20260502185546 69 329 5.2 21.7 0.00 0.00 0.00 29 1009.1
20260502185045 69 273 7.0 21.7 0.00 0.00 0.00 29 1009.3
20260502184554 69 269 4.3 13.0 0.00 0.00 0.00 30 1009.3
20260502184045 69 84 4.3 17.4 0.00 0.00 0.00 29 1009.3
20260502183545 69 287 7.0 17.4 0.00 0.00 0.00 30 1009.2
20260502183044 70 209 6.1 18.2 0.00 0.00 0.00 29 1009.3
20260502182541 70 259 8.7 18.2 0.00 0.00 0.00 30 1009.4
20260502182041 70 283 5.2 13.9 0.00 0.00 0.00 30 1009.6
20260502181544 70 271 5.2 12.2 0.00 0.00 0.00 30 1009.5